Location: Binningen
(47.7924°N, 8.7261°E)
Time: 04:30:13
(UTC+00:00)

Cosmos 1733 Rocket - Pass Details

Date: 03 October 2021
Orbit: 604 x 627 km, 82.5° (Epoch: 25 October)

Event Time Altitude Azimuth Distance (km) Brightness Sun altitude
Rises 02:03:19 0° 7° (N) 2,899 7.1 -33.2°
Reaches altitude 10° 02:06:47 10° 36° (NE) 1,993 6.4 -32.7°
Maximum altitude 02:08:49 13° 63° (ENE) 1,806 6.2 -32.4°
Drops below altitude 10° 02:10:51 10° 91° (E) 1,993 6.2 -32.2°
Sets 02:14:17 0° 120° (ESE) 2,898 6.8 -31.7°
